Time,TemperatureF,DewpointF,PressureIn,WindDirection,WindDirectionDegrees,WindSpeedMPH,WindSpeedGustMPH,Humidity,HourlyPrecipIn,Conditions,Clouds,dailyrainin,SoftwareType,DateUTC
2013-01-24 00:14:00,53.0,45.0,29.95,SSE,160,0.0,0.0,74,0.00,,,0.00,weatherlink.com 1.10,2013-01-23 22:14:00,
2013-01-24 00:29:00,53.1,45.0,29.94,SSE,160,0.0,0.0,74,0.00,,,0.00,weatherlink.com 1.10,2013-01-23 22:29:00,
2013-01-24 00:44:00,53.4,45.0,29.93,SSE,160,0.0,0.0,73,0.00,,,0.00,weatherlink.com 1.10,2013-01-23 22:44:00,
2013-01-24 00:59:00,53.7,44.0,29.93,SSE,160,0.0,0.0,71,0.00,,,0.00,weatherlink.com 1.10,2013-01-23 22:59:00,
2013-01-24 01:14:00,54.1,44.0,29.92,SSE,160,0.0,1.0,68,0.00,,,0.00,weatherlink.com 1.10,2013-01-23 23:14:00,
2013-01-24 01:38:00,53.4,44.0,29.91,SSE,160,0.0,0.0,70,0.00,,,0.00,weatherlink.com 1.10,2013-01-23 23:38:00,
2013-01-24 01:45:00,53.3,44.0,29.91,SSE,160,0.0,0.0,71,0.00,,,0.00,weatherlink.com 1.10,2013-01-23 23:45:00,
2013-01-24 02:00:00,53.0,44.0,29.91,SSE,160,0.0,0.0,71,0.00,,,0.00,weatherlink.com 1.10,2013-01-24 00:00:00,
2013-01-24 02:15:00,52.9,43.0,29.91,SSE,160,0.0,0.0,70,0.00,,,0.00,weatherlink.com 1.10,2013-01-24 00:15:00,
2013-01-24 02:30:00,53.2,44.0,29.91,SSE,160,0.0,2.0,70,0.00,,,0.00,weatherlink.com 1.10,2013-01-24 00:30:00,
2013-01-24 02:45:00,53.3,43.0,29.90,SSE,160,0.0,0.0,69,0.00,,,0.00,weatherlink.com 1.10,2013-01-24 00:45:00,
2013-01-24 03:00:00,53.3,44.0,29.90,SSE,160,0.0,0.0,70,0.00,,,0.00,weatherlink.com 1.10,2013-01-24 01:00:00,
2013-01-24 03:15:00,53.1,44.0,29.89,SSE,160,0.0,0.0,71,0.00,,,0.00,weatherlink.com 1.10,2013-01-24 01:15:00,
2013-01-24 03:30:00,53.0,44.0,29.88,SSE,160,0.0,0.0,71,0.00,,,0.00,weatherlink.com 1.10,2013-01-24 01:30:00,
2013-01-24 03:45:00,53.6,45.0,29.88,South,185,0.0,3.0,73,0.00,,,0.00,weatherlink.com 1.10,2013-01-24 01:45:00,
2013-01-24 04:00:00,53.6,47.0,29.88,SW,229,7.0,7.0,77,0.00,,,0.00,weatherlink.com 1.10,2013-01-24 02:00:00,
2013-01-24 04:15:00,54.1,47.0,29.88,SW,226,3.0,7.0,78,0.00,,,0.00,weatherlink.com 1.10,2013-01-24 02:15:00,
2013-01-24 04:30:00,54.2,47.0,29.87,SE,145,3.0,8.0,77,0.00,,,0.00,weatherlink.com 1.10,2013-01-24 02:30:00,
2013-01-24 04:45:00,54.2,47.0,29.87,SSW,195,4.0,10.0,77,0.00,,,0.00,weatherlink.com 1.10,2013-01-24 02:45:00,
2013-01-24 05:00:00,54.5,49.0,29.86,West,260,4.0,10.0,81,0.00,,,0.00,weatherlink.com 1.10,2013-01-24 03:00:00,
2013-01-24 05:15:00,54.8,50.0,29.85,SE,142,4.0,11.0,83,0.00,,,0.00,weatherlink.com 1.10,2013-01-24 03:15:00,
2013-01-24 05:30:00,54.7,50.0,29.85,SSE,167,2.0,9.0,84,0.00,,,0.00,weatherlink.com 1.10,2013-01-24 03:30:00,
2013-01-24 05:45:00,54.8,50.0,29.84,South,185,2.0,6.0,85,0.00,,,0.00,weatherlink.com 1.10,2013-01-24 03:45:00,
2013-01-24 06:00:00,55.0,51.0,29.84,SSE,151,1.0,10.0,85,0.00,,,0.00,weatherlink.com 1.10,2013-01-24 04:00:00,
2013-01-24 06:15:00,55.3,51.0,29.85,South,177,4.0,8.0,85,0.00,,,0.00,weatherlink.com 1.10,2013-01-24 04:15:00,
2013-01-24 06:30:00,55.6,51.0,29.85,SW,217,3.0,11.0,84,0.00,,,0.00,weatherlink.com 1.10,2013-01-24 04:30:00,
2013-01-24 06:45:00,55.3,52.0,29.84,SE,143,8.0,11.0,88,0.00,,,0.00,weatherlink.com 1.10,2013-01-24 04:45:00,
2013-01-24 07:15:00,55.1,53.0,29.83,SSE,161,10.0,15.0,92,0.00,,,0.00,weatherlink.com 1.10,2013-01-24 05:15:00,
2013-01-24 07:30:00,55.4,53.0,29.82,South,190,3.0,14.0,92,0.00,,,0.00,weatherlink.com 1.10,2013-01-24 05:30:00,
2013-01-24 07:45:00,55.4,53.0,29.82,SSE,150,5.0,13.0,91,0.00,,,0.00,weatherlink.com 1.10,2013-01-24 05:45:00,
2013-01-24 08:00:00,55.8,53.0,29.82,SSW,197,4.0,13.0,91,0.00,,,0.00,weatherlink.com 1.10,2013-01-24 06:00:00,
2013-01-24 08:15:00,55.7,54.0,29.82,SSW,212,7.0,13.0,92,0.01,,,0.01,weatherlink.com 1.10,2013-01-24 06:15:00,
2013-01-24 08:30:00,55.8,53.0,29.82,SSE,152,9.0,15.0,89,0.01,,,0.01,weatherlink.com 1.10,2013-01-24 06:30:00,
2013-01-24 08:45:00,56.4,52.0,29.82,SW,223,10.0,14.0,86,0.01,,,0.01,weatherlink.com 1.10,2013-01-24 06:45:00,
2013-01-24 09:00:00,56.3,53.0,29.82,SSW,192,5.0,17.0,87,0.01,,,0.01,weatherlink.com 1.10,2013-01-24 07:00:00,
2013-01-24 09:15:00,56.4,53.0,29.82,SW,234,9.0,16.0,87,0.00,,,0.01,weatherlink.com 1.10,2013-01-24 07:15:00,
2013-01-24 09:30:00,56.5,52.0,29.82,SW,229,5.0,13.0,86,0.00,,,0.01,weatherlink.com 1.10,2013-01-24 07:30:00,
2013-01-24 09:45:00,56.8,51.0,29.82,SW,219,6.0,19.0,81,0.00,,,0.01,weatherlink.com 1.10,2013-01-24 07:45:00,
2013-01-24 10:00:00,57.0,51.0,29.81,SSE,149,22.0,23.0,80,0.00,,,0.01,weatherlink.com 1.10,2013-01-24 08:00:00,
2013-01-24 10:16:00,57.6,51.0,29.81,SE,135,11.0,27.0,78,0.00,,,0.01,weatherlink.com 1.10,2013-01-24 08:16:00,
2013-01-24 10:31:00,57.2,51.0,29.80,South,186,18.0,26.0,80,0.00,,,0.01,weatherlink.com 1.10,2013-01-24 08:31:00,
2013-01-24 10:46:00,56.9,52.0,29.80,South,177,6.0,19.0,82,0.00,,,0.01,weatherlink.com 1.10,2013-01-24 08:46:00,
2013-01-24 11:01:00,57.1,51.0,29.79,SE,144,9.0,18.0,81,0.00,,,0.01,weatherlink.com 1.10,2013-01-24 09:01:00,
2013-01-24 11:16:00,57.9,52.0,29.79,SW,229,11.0,19.0,80,0.00,,,0.01,weatherlink.com 1.10,2013-01-24 09:16:00,
2013-01-24 11:31:00,58.2,51.0,29.77,SSW,211,11.0,25.0,78,0.00,,,0.01,weatherlink.com 1.10,2013-01-24 09:31:00,
2013-01-24 11:46:00,59.1,52.0,29.77,SSE,165,5.0,19.0,78,0.01,,,0.02,weatherlink.com 1.10,2013-01-24 09:46:00,
2013-01-24 12:01:00,59.4,52.0,29.75,SSW,208,4.0,19.0,76,0.01,,,0.02,weatherlink.com 1.10,2013-01-24 10:01:00,
2013-01-24 12:16:00,60.0,52.0,29.74,South,189,7.0,20.0,75,0.01,,,0.02,weatherlink.com 1.10,2013-01-24 10:16:00,
2013-01-24 12:31:00,60.1,51.0,29.72,SSW,209,12.0,19.0,73,0.00,,,0.02,weatherlink.com 1.10,2013-01-24 10:31:00,
2013-01-24 12:46:00,60.3,51.0,29.70,SSW,198,13.0,25.0,71,0.00,,,0.02,weatherlink.com 1.10,2013-01-24 10:46:00,
2013-01-24 13:01:00,61.1,51.0,29.69,South,172,17.0,25.0,70,0.00,,,0.02,weatherlink.com 1.10,2013-01-24 11:01:00,
2013-01-24 13:16:00,61.1,51.0,29.67,SW,215,16.0,21.0,70,0.00,,,0.02,weatherlink.com 1.10,2013-01-24 11:16:00,
2013-01-24 13:31:00,60.7,51.0,29.66,SE,138,16.0,31.0,70,0.00,,,0.02,weatherlink.com 1.10,2013-01-24 11:31:00,
2013-01-24 13:46:00,60.1,51.0,29.65,SSW,192,8.0,31.0,72,0.00,,,0.02,weatherlink.com 1.10,2013-01-24 11:46:00,
2013-01-24 14:01:00,59.6,51.0,29.65,SW,231,11.0,21.0,73,0.00,,,0.02,weatherlink.com 1.10,2013-01-24 12:01:00,
2013-01-24 14:16:00,59.3,50.0,29.65,South,188,16.0,21.0,72,0.00,,,0.02,weatherlink.com 1.10,2013-01-24 12:16:00,
2013-01-24 14:31:00,59.5,50.0,29.65,South,171,9.0,19.0,72,0.00,,,0.02,weatherlink.com 1.10,2013-01-24 12:31:00,
2013-01-24 14:46:00,59.5,50.0,29.65,SSW,213,8.0,23.0,72,0.00,,,0.02,weatherlink.com 1.10,2013-01-24 12:46:00,
2013-01-24 15:01:00,59.4,50.0,29.64,SE,146,7.0,22.0,72,0.00,,,0.02,weatherlink.com 1.10,2013-01-24 13:01:00,
2013-01-24 15:16:00,59.2,51.0,29.65,SSE,159,13.0,21.0,73,0.00,,,0.02,weatherlink.com 1.10,2013-01-24 13:16:00,
2013-01-24 15:31:00,59.0,51.0,29.64,SE,144,4.0,21.0,75,0.00,,,0.02,weatherlink.com 1.10,2013-01-24 13:31:00,
2013-01-24 15:46:00,58.9,51.0,29.64,South,175,8.0,20.0,74,0.00,,,0.02,weatherlink.com 1.10,2013-01-24 13:46:00,
2013-01-24 16:01:00,58.7,50.0,29.63,SSW,205,16.0,26.0,74,0.00,,,0.02,weatherlink.com 1.10,2013-01-24 14:01:00,
2013-01-24 16:16:00,58.5,51.0,29.62,SSW,200,4.0,25.0,76,0.00,,,0.02,weatherlink.com 1.10,2013-01-24 14:16:00,
2013-01-24 16:31:00,58.3,51.0,29.61,SSW,194,7.0,19.0,78,0.00,,,0.02,weatherlink.com 1.10,2013-01-24 14:31:00,
2013-01-24 16:46:00,58.2,52.0,29.61,SSE,156,5.0,15.0,79,0.00,,,0.02,weatherlink.com 1.10,2013-01-24 14:46:00,
2013-01-24 17:01:00,56.7,51.0,29.61,South,186,5.0,17.0,80,0.00,,,0.02,weatherlink.com 1.10,2013-01-24 15:01:00,
2013-01-24 17:16:00,54.6,51.0,29.60,SSW,192,1.0,10.0,88,0.01,,,0.02,weatherlink.com 1.10,2013-01-24 15:16:00,
2013-01-24 17:31:00,54.0,51.0,29.59,SSE,165,2.0,5.0,90,0.02,,,0.03,weatherlink.com 1.10,2013-01-24 15:31:00,
2013-01-24 17:46:00,53.9,51.0,29.58,NNE,28,0.0,3.0,91,0.02,,,0.04,weatherlink.com 1.10,2013-01-24 15:46:00,
2013-01-24 18:01:00,52.2,49.0,29.60,West,265,9.0,22.0,88,0.24,,,0.25,weatherlink.com 1.10,2013-01-24 16:01:00,
2013-01-24 18:17:00,50.0,48.0,29.60,SSW,200,3.0,10.0,91,0.25,,,0.28,weatherlink.com 1.10,2013-01-24 16:17:00,
2013-01-24 18:31:00,51.2,49.0,29.59,WNW,298,1.0,9.0,93,0.24,,,0.28,weatherlink.com 1.10,2013-01-24 16:31:00,
2013-01-24 18:46:00,50.1,48.0,29.61,NE,38,1.0,13.0,91,0.24,,,0.28,weatherlink.com 1.10,2013-01-24 16:46:00,
2013-01-24 19:01:00,48.7,46.0,29.63,West,273,4.0,13.0,90,0.02,,,0.28,weatherlink.com 1.10,2013-01-24 17:01:00,
2013-01-24 19:16:00,48.1,45.0,29.64,NW,311,5.0,10.0,88,0.01,,,0.28,weatherlink.com 1.10,2013-01-24 17:16:00,
2013-01-24 19:31:00,48.0,45.0,29.63,NW,316,6.0,8.0,89,0.02,,,0.30,weatherlink.com 1.10,2013-01-24 17:31:00,
2013-01-24 19:46:00,47.7,45.0,29.63,NNE,15,0.0,4.0,89,0.02,,,0.30,weatherlink.com 1.10,2013-01-24 17:46:00,
2013-01-24 20:01:00,47.9,44.0,29.61,ENE,78,1.0,6.0,87,0.02,,,0.30,weatherlink.com 1.10,2013-01-24 18:01:00,
2013-01-24 20:16:00,48.5,44.0,29.62,ENE,69,0.0,3.0,84,0.02,,,0.30,weatherlink.com 1.10,2013-01-24 18:16:00,
2013-01-24 20:31:00,49.0,44.0,29.62,NE,44,0.0,2.0,83,0.00,,,0.30,weatherlink.com 1.10,2013-01-24 18:31:00,
2013-01-24 20:46:00,49.1,44.0,29.61,ENE,78,0.0,3.0,81,0.00,,,0.30,weatherlink.com 1.10,2013-01-24 18:46:00,
2013-01-24 21:01:00,49.0,42.0,29.61,SE,131,0.0,3.0,76,0.00,,,0.30,weatherlink.com 1.10,2013-01-24 19:01:00,
2013-01-24 21:16:00,49.4,41.0,29.61,SE,134,0.0,1.0,73,0.00,,,0.30,weatherlink.com 1.10,2013-01-24 19:16:00,
2013-01-24 21:31:00,49.4,41.0,29.61,SSW,197,0.0,4.0,73,0.00,,,0.30,weatherlink.com 1.10,2013-01-24 19:31:00,
2013-01-24 21:46:00,48.9,41.0,29.61,South,186,1.0,3.0,74,0.00,,,0.30,weatherlink.com 1.10,2013-01-24 19:46:00,
2013-01-24 22:01:00,48.6,41.0,29.61,South,185,1.0,3.0,75,0.00,,,0.30,weatherlink.com 1.10,2013-01-24 20:01:00,
2013-01-24 22:16:00,48.9,41.0,29.62,South,186,0.0,3.0,74,0.00,,,0.30,weatherlink.com 1.10,2013-01-24 20:16:00,
2013-01-24 22:31:00,48.6,41.0,29.62,South,184,0.0,2.0,76,0.00,,,0.30,weatherlink.com 1.10,2013-01-24 20:31:00,
2013-01-24 22:46:00,49.0,41.0,29.62,South,184,0.0,2.0,75,0.00,,,0.30,weatherlink.com 1.10,2013-01-24 20:46:00,
2013-01-24 23:01:00,49.0,42.0,29.62,SSW,205,0.0,4.0,77,0.00,,,0.30,weatherlink.com 1.10,2013-01-24 21:01:00,
2013-01-24 23:16:00,49.1,42.0,29.62,SSW,207,0.0,3.0,77,0.00,,,0.30,weatherlink.com 1.10,2013-01-24 21:16:00,
2013-01-24 23:31:00,49.5,42.0,29.63,SSW,207,0.0,0.0,76,0.00,,,0.30,weatherlink.com 1.10,2013-01-24 21:31:00,
2013-01-24 23:46:00,49.0,42.0,29.64,SSW,207,0.0,0.0,78,0.00,,,0.30,weatherlink.com 1.10,2013-01-24 21:46:00,